• In France
  • List of Countries
  • For 7 days
  • Water Temperature
  • Satellite Maps
  • Weather Map
  • Weather Widgets
  • user-avatar
    Login

    Hourly Weather Kinshasa

    Today, 21 November, Tuesday

    Time Temperature Precipitation Wind Pressure Humidity
    00:00 +22°C° 0.1 mm 0 mps 707 mmHg 79%
    01:00 +22°C° 0 mm 0 mps 706 mmHg 80%
    02:00 +21°C° 0.1 mm 0 mps 706 mmHg 82%
    03:00 +21°C° 0.1 mm 0 mps 706 mmHg 84%
    04:00 +21°C° 0.1 mm 0 mps 706 mmHg 86%
    05:00 +21°C° 0.1 mm 0 mps 707 mmHg 86%
    06:00 +22°C° 0.1 mm 0 mps 707 mmHg 86%
    07:00 +22°C° 0.1 mm 0 mps 707 mmHg 85%
    08:00 +25°C° 0.2 mm 0 mps 708 mmHg 76%
    09:00 +28°C° 0.2 mm 0 mps 708 mmHg 67%
    10:00 +30°C° 0.2 mm 0 mps 708 mmHg 58%
    11:00 +33°C° 0.4 mm 1 mps 707 mmHg 54%
    12:00 +33°C° 0.4 mm 1 mps 707 mmHg 50%
    13:00 +35°C° 0.4 mm 2 mps 706 mmHg 46%
    14:00 +34°C° 0 mm 2 mps 706 mmHg 48%
    15:00 +33°C° 0 mm 1 mps 705 mmHg 50%
    16:00 +33°C° 0 mm 1 mps 705 mmHg 52%
    17:00 +31°C° 0 mm 1 mps 705 mmHg 57%
    18:00 +27°C° 0 mm 0 mps 705 mmHg 62%
    19:00 +25°C° 0 mm 0 mps 705 mmHg 67%
    20:00 +25°C° 0 mm 0 mps 705 mmHg 68%
    21:00 +24°C° 0 mm 0 mps 706 mmHg 70%
    22:00 +24°C° 0 mm 0 mps 707 mmHg 71%
    23:00 +24°C° 0 mm 0 mps 706 mmHg 72%

    Tomorrow, 22 November, Wednesday

    Time Temperature Precipitation Wind Pressure Humidity
    00:00 +23°C° 0 mm 0 mps 706 mmHg 74%
    01:00 +23°C° 0 mm 0 mps 706 mmHg 75%
    02:00 +22°C° 0 mm 0 mps 705 mmHg 78%
    03:00 +22°C° 0 mm 0 mps 705 mmHg 80%
    04:00 +21°C° 0 mm 0 mps 705 mmHg 82%
    05:00 +22°C° 0 mm 0 mps 705 mmHg 82%
    06:00 +22°C° 0 mm 0 mps 706 mmHg 81%
    07:00 +25°C° 0 mm 1 mps 706 mmHg 80%
    08:00 +27°C° 0 mm 1 mps 707 mmHg 71%
    09:00 +30°C° 0 mm 1 mps 707 mmHg 61%
    10:00 +33°C° 0 mm 1 mps 708 mmHg 52%
    11:00 +34°C° 0 mm 1 mps 707 mmHg 47%
    12:00 +35°C° 0 mm 1 mps 706 mmHg 41%
    13:00 +36°C° 0 mm 1 mps 705 mmHg 36%
    14:00 +35°C° 0 mm 1 mps 705 mmHg 39%
    15:00 +35°C° 0 mm 1 mps 704 mmHg 42%
    16:00 +34°C° 0 mm 1 mps 704 mmHg 45%
    17:00 +32°C° 0 mm 1 mps 704 mmHg 50%
    18:00 +28°C° 0 mm 0 mps 704 mmHg 54%
    19:00 +26°C° 0 mm 0 mps 705 mmHg 59%
    20:00 +25°C° 0 mm 0 mps 705 mmHg 60%
    21:00 +25°C° 0 mm 0 mps 706 mmHg 61%
    22:00 +25°C° 0 mm 0 mps 706 mmHg 62%
    23:00 +26°C° 0 mm 1 mps 706 mmHg 65%

    Day after tomorrow, 23 November, Thursday

    Time Temperature Precipitation Wind Pressure Humidity
    00:00 +26°C° 0 mm 1 mps 706 mmHg 68%
    01:00 +25°C° 0 mm 1 mps 705 mmHg 71%
    02:00 +25°C° 0 mm 1 mps 705 mmHg 76%
    03:00 +24°C° 0 mm 1 mps 705 mmHg 82%
    04:00 +23°C° 0 mm 1 mps 705 mmHg 87%
    05:00 +24°C° 0 mm 2 mps 705 mmHg 86%
    06:00 +24°C° 0 mm 2 mps 706 mmHg 86%
    07:00 +24°C° 0 mm 2 mps 706 mmHg 86%
    08:00 +26°C° 0 mm 2 mps 707 mmHg 78%
    09:00 +28°C° 0 mm 2 mps 707 mmHg 71%
    10:00 +30°C° 0 mm 2 mps 708 mmHg 64%
    11:00 +31°C° 0.1 mm 2 mps 707 mmHg 60%
    12:00 +32°C° 0.1 mm 2 mps 707 mmHg 57%
    13:00 +33°C° 0.1 mm 1 mps 706 mmHg 53%
    14:00 +32°C° 0.3 mm 1 mps 705 mmHg 57%
    15:00 +31°C° 0.3 mm 1 mps 705 mmHg 62%
    16:00 +30°C° 0.3 mm 1 mps 704 mmHg 66%
    17:00 +28°C° 0.1 mm 1 mps 704 mmHg 72%
    18:00 +27°C° 0.1 mm 1 mps 705 mmHg 79%
    19:00 +25°C° 0.1 mm 1 mps 705 mmHg 86%
    20:00 +25°C° 0 mm 1 mps 706 mmHg 88%
    21:00 +24°C° 0 mm 1 mps 706 mmHg 90%
    22:00 +24°C° 0 mm 1 mps 707 mmHg 92%
    23:00 +23°C° 0 mm 1 mps 706 mmHg 93%

    24 November, Friday

    Time Temperature Precipitation Wind Pressure Humidity
    00:00 +23°C° 0 mm 1 mps 706 mmHg 94%
    01:00 +22°C° 0 mm 1 mps 706 mmHg 95%
    02:00 +22°C° 0 mm 1 mps 706 mmHg 96%
    03:00 +22°C° 0 mm 1 mps 706 mmHg 96%
    04:00 +22°C° 0 mm 1 mps 706 mmHg 97%
    05:00 +21°C° 0 mm 2 mps 706 mmHg 95%
    06:00 +23°C° 0 mm 2 mps 707 mmHg 93%
    07:00 +23°C° 0 mm 2 mps 707 mmHg 92%
    08:00 +24°C° 0 mm 2 mps 708 mmHg 86%
    09:00 +25°C° 0 mm 2 mps 708 mmHg 81%
    10:00 +27°C° 0 mm 2 mps 708 mmHg 76%
    11:00 +28°C° 0 mm 2 mps 707 mmHg 68%
    12:00 +30°C° 0 mm 2 mps 706 mmHg 60%
    13:00 +31°C° 0 mm 2 mps 706 mmHg 52%
    14:00 +31°C° 0 mm 2 mps 705 mmHg 51%
    15:00 +31°C° 0 mm 1 mps 705 mmHg 50%
    16:00 +31°C° 0 mm 1 mps 705 mmHg 49%
    17:00 +29°C° 0 mm 1 mps 705 mmHg 56%
    18:00 +27°C° 0 mm 1 mps 705 mmHg 62%
    19:00 +25°C° 0 mm 1 mps 706 mmHg 68%
    20:00 +25°C° 0 mm 1 mps 706 mmHg 69%
    21:00 +24°C° 0 mm 1 mps 706 mmHg 70%
    22:00 +23°C° 0 mm 1 mps 707 mmHg 71%
    23:00 +23°C° 0 mm 1 mps 706 mmHg 73%

    25 November, Saturday

    Time Temperature Precipitation Wind Pressure Humidity
    00:00 +22°C° 0 mm 1 mps 706 mmHg 74%
    01:00 +22°C° 0 mm 1 mps 706 mmHg 76%
    02:00 +21°C° 0 mm 1 mps 706 mmHg 77%
    03:00 +21°C° 0 mm 1 mps 706 mmHg 77%
    04:00 +21°C° 0 mm 1 mps 706 mmHg 78%
    05:00 +21°C° 0 mm 1 mps 706 mmHg 77%
    06:00 +22°C° 0 mm 1 mps 707 mmHg 77%
    07:00 +22°C° 0 mm 1 mps 708 mmHg 76%
    08:00 +24°C° 0 mm 1 mps 708 mmHg 69%
    09:00 +27°C° 0 mm 1 mps 708 mmHg 62%
    10:00 +29°C° 0 mm 1 mps 709 mmHg 55%
    11:00 +31°C° 0 mm 1 mps 708 mmHg 49%
    12:00 +33°C° 0 mm 1 mps 707 mmHg 43%
    13:00 +32°C° 0 mm 0 mps 707 mmHg 37%
    14:00 +33°C° 0 mm 1 mps 706 mmHg 43%
    15:00 +31°C° 0 mm 1 mps 706 mmHg 49%
    16:00 +30°C° 0 mm 1 mps 705 mmHg 55%
    17:00 +28°C° 0 mm 1 mps 706 mmHg 56%
    18:00 +27°C° 0 mm 1 mps 706 mmHg 58%
    19:00 +25°C° 0 mm 1 mps 707 mmHg 59%
    20:00 +25°C° 0 mm 1 mps 707 mmHg 60%
    21:00 +24°C° 0 mm 1 mps 707 mmHg 60%
    22:00 +23°C° 0 mm 1 mps 707 mmHg 60%
    23:00 +23°C° 0 mm 1 mps 707 mmHg 60%

    26 November, Sunday

    Time Temperature Precipitation Wind Pressure Humidity
    00:00 +23°C° 0 mm 1 mps 707 mmHg 61%
    01:00 +21°C° 0 mm 0 mps 707 mmHg 62%
    02:00 +22°C° 0 mm 1 mps 707 mmHg 64%
    03:00 +22°C° 0 mm 1 mps 707 mmHg 65%
    04:00 +22°C° 0 mm 1 mps 707 mmHg 67%
    05:00 +22°C° 0 mm 1 mps 707 mmHg 68%
    06:00 +22°C° 0 mm 1 mps 708 mmHg 69%
    07:00 +21°C° 0 mm 0 mps 709 mmHg 71%
    08:00 +25°C° 0 mm 1 mps 709 mmHg 65%
    09:00 +27°C° 0 mm 1 mps 709 mmHg 59%
    10:00 +29°C° 0 mm 1 mps 710 mmHg 53%
    11:00 +30°C° 0 mm 1 mps 709 mmHg 52%
    12:00 +30°C° 0 mm 1 mps 708 mmHg 50%
    13:00 +31°C° 0 mm 1 mps 708 mmHg 49%
    14:00 +31°C° 0 mm 1 mps 707 mmHg 51%
    15:00 +30°C° 0 mm 1 mps 707 mmHg 52%
    16:00 +30°C° 0 mm 1 mps 706 mmHg 54%
    17:00 +28°C° 0 mm 1 mps 707 mmHg 60%
    18:00 +26°C° 0 mm 1 mps 707 mmHg 65%
    19:00 +25°C° 0 mm 1 mps 707 mmHg 71%
    20:00 +24°C° 0 mm 1 mps 707 mmHg 73%
    21:00 +24°C° 0 mm 1 mps 708 mmHg 76%
    22:00 +23°C° 0 mm 1 mps 708 mmHg 78%
    23:00 +23°C° 0 mm 1 mps 708 mmHg 81%
    Show more